Terug naar catalogus

COSMOS 1622

ActiefMilitairPO
NORAD 15474·PAYLOAD·🇷🇺 Russia

Gelanceerd Jan 15, 1985 vanaf Plesetsk Cosmodrome

Loading…

Volgende Passages (komende 24 uur)

TLE

VersSource: Space-Track

Epoch: Sep 14, 2026, 19:30 UTC

1 15474U 85003F   26257.81273993  .00000009  00000-0 -90619-5 0  9991
2 15474  82.6112  27.6833 0008448 337.5756 177.5523 12.63800536921851

Volg COSMOS 1622 in realtime met AllMySat

Download on the App Store